Location: Asheville, NC
(35.6000°N, 82.5500°W)
Time: 17:08:59
(UTC-04:00)

nSIGHT-1 - Pass Details

Date: 17 March 2018
Orbit: 380 x 386 km, 51.6° (Epoch: 18 June)

Event Time Altitude Azimuth Distance (km) Brightness Sun altitude
Exits shadow 07:01:34 - 307° (NW) 1,758 ? -8.3°
Reaches altitude 10° 07:02:23 10° 305° (NW) 1,418 ? -8.1°
Maximum altitude 07:05:31 59° 225° (SW) 453 ? -7.5°
Drops below altitude 10° 07:08:37 10° 145° (SE) 1,402 ? -6.8°
Sets 07:10:40 0° 141° (SE) 2,249 ? -6.4°
